Regional Weather Roundup
Issued by NWS

Home | Current Version | Previous Version | Graphics & Text | Print | Product List | Glossary On
Versions: 1 2 3 4 5 6 7 8 9 10 11 12 13 14 15 16 17 18 19 20 21 22 23 24 25 26 27 28 29 30 31 32 33 34 35 36 37 38 39 40 41 42 43 44 45 46 47 48 49 50
000
ASUS45 KCYS 301510
RWRWY

WYOMING REGIONAL WEATHER ROUNDUP
NATIONAL WEATHER SERVICE CHEYENNE WY
900 AM MDT SUN APR 30 2017

NOTE:  "FAIR" INDICATES FEW OR NO CLOUDS BELOW 12,000 FEET
WITH NO SIGNIFICANT WEATHER AND/OR OBSTRUCTIONS TO VISIBILITY.

WYZ001-301600-
YELLOWSTONE NATIONAL PARK

CITY           SKY/WX    TMP DP  RH WIND       PRES   REMARKS
LK YELLOWSTONE   N/A     30  21  69 CALM      30.14F
W YELLOWSTONE  NOT AVBL

$$
WYZ002>013-054>058-071-098>099-301600-
NORTHERN WYOMING

CITY           SKY/WX    TMP DP  RH WIND       PRES   REMARKS
JACKSON        MOSUNNY   36  25  64 CALM      30.15F
CODY           FAIR      42  29  59 N5        30.04F
GREYBULL       FAIR      43  26  51 VRB3      30.06F
WORLAND        FAIR      44  29  55 S7        30.05F
SHERIDAN       FAIR      39  26  59 CALM      30.00F
BUFFALO        FAIR      42  20  41 SW5       30.01F
GILLETTE       FAIR      36  28  73 S8        30.01F WCI  30
HULETT         FAIR      46  21  36 CALM      30.02F
NEWCASTLE      FAIR      43  18  36 NW6       30.02F

$$
WYZ014>020-022>026-101>103-301600-
CENTRAL WYOMING

CITY           SKY/WX    TMP DP  RH WIND       PRES   REMARKS
BIG PINEY      FAIR      33  24  69 VRB3      30.16F
PINEDALE       PTSUNNY   32  21  64 NW5       30.16F WCI  27
DUBOIS         FAIR      37  18  44 NW14      30.07F WCI  29
LANDER         FAIR      34  22  61 CALM      30.07F
RIVERTON       FAIR      35  22  58 CALM      30.09F
CASPER         FAIR      39  22  50 W17       30.05F WCI  30
DOUGLAS        FAIR      36  27  69 NW10      30.03F WCI  28

$$
WYZ021-027>030-104>119-301600-
SOUTHERN WYOMING

CITY           SKY/WX    TMP DP  RH WIND       PRES   REMARKS
EVANSTON       FAIR      32  24  72 SW10      30.19S WCI  24
KEMMERER         N/A     34  27  75 W12       30.17F WCI  25
FORT BRIDGER   FAIR      40  24  54 W16       30.20S WCI  31
ROCK SPRINGS   FAIR      38  24  57 SW12      30.14F WCI  30
DIXON            N/A     31  20  62 CALM      30.19S
RAWLINS        FAIR      32  23  69 SW10      30.10F WCI  24
SARATOGA       FAIR      32  19  59 SE9       30.14R WCI  24
LARAMIE        FAIR      26  19  74 W3        30.05F
CHEYENNE       FAIR      38  15  39 NW30G41   29.97F WCI  26
TORRINGTON     FAIR      43  25  49 NW14      29.99F
PINE BLUFFS    FAIR      39  21  48 N23G29    29.99R WCI  29

$$



USA.gov is the U.S. government's official web portal to all federal, state and local government web resources and services.